Weston, WY

7:28 AM MST on February 12, 2016 (GMT -0700)
Gillette-Campbell County

Weather History for KGCC - February, 2014

Change the Weather History Date:

Friday, February 28, 2014

  Actual Average Record
Temperature  
Mean Temperature 18 °F 30 °F  
Max Temperature 37 °F 42 °F 37 °F (2014)
Min Temperature -2 °F 19 °F -2 °F (2014)
Degree Days  
Heating Degree Days 47 35  
Month to date heating degree days 1342 1054  
Since 1 July heating degree days 5645 5408  
Cooling Degree Days 0 0  
Month to date cooling degree days 0 0  
Year to date cooling degree days 0 0  
Moisture  
Dew Point 8 °F    
Average Humidity 78    
Maximum Humidity 92    
Minimum Humidity 64    
Precipitation  
Precipitation 0.06 in 0.01 in 0.06 in (2014)
Month to date precipitation 0.88 0.39  
Year to date precipitation 1.27 0.78  
Sea Level Pressure  
Sea Level Pressure 29.88 in    
Wind  
Wind Speed 16 mph (North)    
Max Wind Speed 30 mph    
Max Gust Speed 37 mph    
Visibility 5 miles    
Events Snow    
T = Trace of Precipitation, MM = Missing Value Source: NWS Daily Summary

Daily Weather History Graph

Daily Weather History Graph

Search for Another Location

Airport or City:

Trip Planner

Search our weather history database for the weather conditions in past years. The results will help you decide how hot, cold, wet, or windy it might be!

Date:

Astronomy

Feb. 28, 2014 Rise Set
Actual Time 6:40 AM MST 5:49 PM MST
Civil Twilight 6:11 AM MST 6:18 PM MST
Nautical Twilight 5:38 AM MST 6:51 PM MST
Astronomical Twilight 5:04 AM MST 7:25 PM MST
Moon 5:57 AM MST (2/28) 5:29 PM MST (2/28)
Length of Visible Light 12h 06m
Length of Day
11h 08m
Waning Crescent, 0% of the Moon is Illuminated
Feb 28
Waning Crescent
Mar 1
New
Mar 8
First Quarter
Mar 16
Full
Mar 23
Last Quarter

Hourly Weather History & Observations

Time (MST) Temp. Windchill Dew Point Humidity Pressure Visibility Wind Dir Wind Speed Gust Speed Precip Events Conditions
12:53 AM 37.0 °F 27.7 °F 27.0 °F 67% 29.53 in 10.0 mi NW 16.1 mph 21.9 mph N/A   Overcast
1:16 AM 33.8 °F 22.2 °F 28.4 °F 81% 29.54 in 10.0 mi North 20.7 mph 26.5 mph N/A   Overcast
1:21 AM 32.0 °F 19.2 °F 30.2 °F 93% 29.55 in 10.0 mi North 23.0 mph 26.5 mph N/A   Overcast
1:53 AM 30.0 °F 18.7 °F 28.0 °F 92% 29.61 in 4.0 mi NNW 16.1 mph - N/A   Overcast
2:00 AM 30.2 °F 18.5 °F 28.4 °F 93% 29.58 in 1.8 mi NNW 17.3 mph - 0.00 in Snow Light Snow
2:20 AM 28.4 °F 15.1 °F 26.6 °F 93% 29.60 in 0.8 mi NNW 20.7 mph 29.9 mph 0.00 in Snow Light Snow
2:33 AM 26.6 °F 12.0 °F 23.0 °F 86% 29.61 in 1.0 mi NNW 23.0 mph - 0.02 in Snow Light Snow
2:46 AM 24.8 °F 8.4 °F 21.2 °F 86% 29.62 in 1.0 mi NNW 27.6 mph 33.4 mph 0.02 in Snow Light Snow
2:53 AM 24.1 °F 8.3 °F 21.0 °F 88% 29.69 in 1.5 mi NNW 24.2 mph 36.8 mph 0.02 in Snow Light Snow
2:58 AM 24.8 °F 8.7 °F 21.2 °F 86% 29.63 in 3.0 mi NNW 26.5 mph 36.8 mph 0.00 in Snow Light Snow
3:12 AM 24.8 °F 11.1 °F 19.4 °F 80% 29.65 in 5.0 mi North 18.4 mph 35.7 mph 0.00 in Snow Light Snow
3:30 AM 23.0 °F 8.0 °F 19.4 °F 86% 29.65 in 2.5 mi North 20.7 mph 26.5 mph 0.00 in Snow Light Snow
3:39 AM 23.0 °F 8.3 °F 19.4 °F 86% 29.66 in 4.0 mi NNW 19.6 mph 27.6 mph 0.00 in Snow Light Snow
3:48 AM 21.2 °F 5.6 °F 19.4 °F 93% 29.67 in 3.0 mi NNW 20.7 mph 25.3 mph 0.00 in   Overcast
3:53 AM 21.9 °F 6.2 °F 19.0 °F 89% 29.73 in 6.0 mi NNW 21.9 mph - 0.00 in   Overcast
4:30 AM 19.4 °F 2.1 °F 17.6 °F 93% 29.70 in 10.0 mi North 24.2 mph 31.1 mph N/A   Overcast
4:53 AM 19.9 °F 3.2 °F 16.0 °F 85% 29.78 in 7.0 mi North 23.0 mph 27.6 mph 0.00 in Snow Light Snow
5:26 AM 19.4 °F 1.8 °F 15.8 °F 86% 29.74 in 5.0 mi North 25.3 mph 28.8 mph 0.00 in Snow Light Snow
5:53 AM 17.1 °F -0.6 °F 12.9 °F 84% 29.87 in 4.0 mi North 23.0 mph 29.9 mph 0.00 in Snow Light Snow
6:01 AM 15.8 °F -1.9 °F 12.2 °F 86% 29.77 in 1.8 mi North 21.9 mph - 0.00 in Snow Light Snow
6:11 AM 15.8 °F -1.1 °F 12.2 °F 86% 29.77 in 3.0 mi North 19.6 mph - 0.00 in Snow Light Snow
6:28 AM 15.8 °F -2.3 °F 10.4 °F 79% 29.78 in 1.8 mi NNW 23.0 mph 29.9 mph 0.00 in Snow Light Snow
6:37 AM 15.8 °F -2.7 °F 10.4 °F 79% 29.79 in 1.5 mi NNW 24.2 mph - 0.00 in Snow Light Snow
6:50 AM 14.0 °F -5.1 °F 8.6 °F 79% 29.79 in 3.0 mi North 24.2 mph 31.1 mph 0.00 in Snow Light Snow
6:53 AM 14.0 °F -5.5 °F 8.1 °F 77% 29.93 in 4.0 mi North 25.3 mph 31.1 mph 0.00 in Snow Light Snow
7:05 AM 12.2 °F -7.9 °F 8.6 °F 85% 29.81 in 2.5 mi North 25.3 mph - 0.00 in Snow Light Snow
7:12 AM 12.2 °F -6.7 °F 8.6 °F 85% 29.80 in 7.0 mi North 21.9 mph - 0.00 in   Overcast
7:53 AM 12.9 °F -5.3 °F 8.1 °F 81% 29.99 in 3.0 mi North 20.7 mph - 0.00 in   Haze
8:00 AM 12.2 °F -6.7 °F 8.6 °F 85% 29.84 in 1.8 mi NNW 21.9 mph - 0.00 in Snow Light Snow
8:19 AM 10.4 °F -9.5 °F 6.8 °F 85% 29.85 in 2.5 mi NNW 23.0 mph - 0.00 in Snow Light Snow
8:30 AM 10.4 °F -8.2 °F 6.8 °F 85% 29.86 in 4.0 mi NNW 19.6 mph - 0.00 in   Haze
8:53 AM 10.9 °F -8.3 °F 5.0 °F 77% 30.01 in 9.0 mi NNW 21.9 mph - 0.00 in   Overcast
9:53 AM 10.0 °F -8.6 °F 5.0 °F 80% 30.03 in 5.0 mi North 19.6 mph - 0.00 in Snow Light Snow
10:53 AM 10.0 °F -7.1 °F 1.9 °F 70% 30.02 in 9.0 mi North 16.1 mph - 0.00 in   Overcast
11:53 AM 10.9 °F -2.6 °F 3.9 °F 73% 30.03 in 5.0 mi North 10.4 mph - N/A   Haze
12:07 PM 10.4 °F -3.3 °F 3.2 °F 73% 29.91 in 2.5 mi NNE 10.4 mph - 0.00 in Snow Light Snow
12:15 PM 10.4 °F -2.4 °F 3.2 °F 73% 29.90 in 6.0 mi NNE 9.2 mph - 0.00 in   Haze
12:53 PM 10.0 °F -2.9 °F 3.0 °F 73% 30.02 in 6.0 mi NNE 9.2 mph - 0.00 in   Haze
1:53 PM 9.0 °F -5.9 °F 3.0 °F 77% 30.04 in 5.0 mi NE 11.5 mph - N/A   Haze
2:04 PM 8.6 °F -7.0 °F 1.4 °F 73% 29.89 in 2.0 mi NE 12.7 mph - 0.00 in Snow Light Snow
2:16 PM 8.6 °F -8.3 °F 1.4 °F 73% 29.87 in 5.0 mi NE 15.0 mph - 0.00 in   Haze
2:53 PM 8.1 °F -8.4 °F 1.0 °F 73% 30.06 in 6.0 mi NNE 13.8 mph - 0.00 in   Haze
3:36 PM 6.8 °F -9.3 °F -0.4 °F 72% 29.90 in 7.0 mi NE 12.7 mph - N/A   Overcast
3:53 PM 6.1 °F -11.6 °F -0.9 °F 73% 30.09 in 10.0 mi NE 15.0 mph - N/A   Overcast
4:53 PM 5.0 °F -10.8 °F -2.9 °F 70% 30.12 in 10.0 mi NNE 11.5 mph - N/A   Overcast
5:53 PM 3.9 °F -12.2 °F -2.9 °F 73% 30.14 in 10.0 mi NNE 11.5 mph - N/A   Overcast
6:53 PM 3.9 °F -13.0 °F -2.0 °F 76% 30.17 in 10.0 mi NNE 12.7 mph - N/A   Overcast
7:53 PM 1.9 °F -11.8 °F -4.0 °F 76% 30.21 in 9.0 mi NNE 8.1 mph - N/A   Overcast
8:13 PM 1.4 °F -13.5 °F -5.8 °F 72% 29.99 in 6.0 mi NNE 9.2 mph - N/A   Haze
8:53 PM 1.0 °F -15.8 °F -5.1 °F 75% 30.24 in 10.0 mi North 11.5 mph - N/A   Overcast
9:24 PM 1.4 °F -14.5 °F -4.0 °F 78% 30.01 in 2.5 mi NNE 10.4 mph - N/A   Haze
9:33 PM 1.4 °F -12.5 °F -4.0 °F 78% 30.01 in 5.0 mi NNE 8.1 mph - N/A   Haze
9:53 PM 1.0 °F -14.9 °F -5.1 °F 75% 30.23 in 8.0 mi NNE 10.4 mph - N/A   Overcast
10:29 PM 1.4 °F -16.1 °F -5.8 °F 72% 30.00 in 2.5 mi NNE 12.7 mph - 0.01 in Snow Light Snow
10:41 PM 1.4 °F -15.3 °F -5.8 °F 72% 30.00 in 1.8 mi NNE 11.5 mph - 0.01 in Snow Light Snow
10:53 PM -0.0 °F -17.1 °F -5.1 °F 79% 30.25 in 1.2 mi North 11.5 mph - 0.01 in Snow Light Snow
11:13 PM -0.4 °F -18.4 °F -5.8 °F 78% 30.01 in 1.0 mi NNE 12.7 mph - 0.01 in Snow Light Snow
11:25 PM -0.4 °F -18.4 °F -5.8 °F 78% 30.01 in 0.8 mi NNE 12.7 mph - 0.02 in Snow Light Snow
11:43 PM -0.4 °F -18.4 °F -5.8 °F 78% 30.02 in 1.0 mi NNE 12.7 mph - 0.03 in Snow Light Snow
11:53 PM -0.9 °F -19.1 °F -7.1 °F 75% 30.27 in 1.0 mi NNE 12.7 mph - 0.03 in Snow Light Snow